BGA621 EIDW-EGCC

Flight info

Callsign BGA621
Flight time 0h 43m
Altitude 19000
Route BOFUM3J BOFUM Q37 MALUD
Aircraft A320/M-SDE3FGHIRWY/LB1

Departure

Time 2026-05-06 00:19
Airport Dublin Airport (EIDW)

Arrival

Time 2026-05-06 01:02
Airport Manchester Airport (EGCC)
Time Latitude Longitude Altitude Speed Heading
2026-05-05 23:56 53.42535 -6.24613 225 ft 0 kts 17°
2026-05-06 00:09 53.42532 -6.24615 225 ft 2 kts 17°
2026-05-06 00:09 53.42515 -6.24621 225 ft 3 kts 349°
2026-05-06 00:09 53.42499 -6.24611 225 ft 3 kts 313°
2026-05-06 00:09 53.42489 -6.24586 226 ft 3 kts 276°
2026-05-06 00:10 53.42489 -6.24567 225 ft 0 kts 252°
2026-05-06 00:12 53.42483 -6.24596 226 ft 14 kts 252°
2026-05-06 00:13 53.42419 -6.24717 225 ft 0 kts 204°
2026-05-06 00:13 53.42418 -6.24717 225 ft 0 kts 208°
2026-05-06 00:13 53.42399 -6.24791 225 ft 20 kts 263°
2026-05-06 00:13 53.42578 -6.25027 225 ft 44 kts 339°
2026-05-06 00:14 53.42828 -6.25275 225 ft 41 kts 333°
2026-05-06 00:14 53.43083 -6.25451 225 ft 39 kts 338°
2026-05-06 00:14 53.43248 -6.25570 225 ft 38 kts 336°
2026-05-06 00:14 53.43407 -6.25660 225 ft 2 kts 64°
2026-05-06 00:15 53.43408 -6.25637 226 ft 3 kts 86°
2026-05-06 00:15 53.43402 -6.25450 225 ft 26 kts 95°
2026-05-06 00:15 53.43392 -6.25247 225 ft 27 kts 95°
2026-05-06 00:15 53.43369 -6.24810 225 ft 30 kts 95°
2026-05-06 00:16 53.43359 -6.24643 225 ft 0 kts 96°
2026-05-06 00:16 53.43365 -6.24594 225 ft 18 kts 69°
2026-05-06 00:16 53.43409 -6.24556 225 ft 0 kts
2026-05-06 00:17 53.43428 -6.24555 226 ft 7 kts
2026-05-06 00:17 53.43479 -6.24555 227 ft 3 kts 353°
2026-05-06 00:18 53.43490 -6.24560 227 ft 2 kts 342°
2026-05-06 00:18 53.43502 -6.24571 227 ft 8 kts 328°
2026-05-06 00:18 53.43571 -6.25113 225 ft 89 kts 274°
2026-05-06 00:18 53.43639 -6.26517 227 ft 150 kts 277°
2026-05-06 00:19 53.43755 -6.28425 584 ft 176 kts 277°
2026-05-06 00:19 53.44059 -6.30349 1344 ft 170 kts 310°
2026-05-06 00:19 53.44892 -6.31726 2134 ft 170 kts 320°
2026-05-06 00:19 53.45770 -6.33210 2582 ft 192 kts 313°
2026-05-06 00:20 53.46834 -6.34711 2981 ft 209 kts 336°
2026-05-06 00:20 53.48259 -6.35114 3736 ft 214 kts
2026-05-06 00:20 53.49744 -6.35033 4782 ft 213 kts
2026-05-06 00:20 53.51215 -6.34740 5734 ft 217 kts 20°
2026-05-06 00:21 53.52371 -6.33097 6567 ft 231 kts 58°
2026-05-06 00:21 53.52811 -6.30357 7023 ft 260 kts 83°
2026-05-06 00:21 53.52849 -6.27203 7673 ft 277 kts 90°
2026-05-06 00:21 53.52743 -6.23922 8557 ft 285 kts 92°
2026-05-06 00:22 53.52602 -6.20568 8965 ft 290 kts 92°
2026-05-06 00:22 53.52470 -6.17191 9078 ft 290 kts 92°
2026-05-06 00:22 53.52363 -6.13820 9080 ft 290 kts 91°
2026-05-06 00:22 53.52281 -6.10455 9084 ft 290 kts 90°
2026-05-06 00:23 53.52153 -6.07077 9084 ft 290 kts 98°
2026-05-06 00:23 53.51693 -6.03719 9593 ft 298 kts 103°
2026-05-06 00:23 53.51203 -6.00324 10482 ft 307 kts 103°
2026-05-06 00:23 53.50686 -5.96713 10876 ft 331 kts 102°
2026-05-06 00:24 53.50135 -5.92855 11419 ft 346 kts 103°
2026-05-06 00:24 53.49568 -5.88909 12203 ft 353 kts 102°
2026-05-06 00:24 53.49223 -5.84802 13012 ft 357 kts 90°
2026-05-06 00:24 53.49405 -5.80651 13815 ft 360 kts 77°
2026-05-06 00:25 53.49986 -5.76558 14538 ft 364 kts 74°
2026-05-06 00:25 53.50589 -5.72411 15269 ft 369 kts 75°
2026-05-06 00:25 53.51190 -5.68203 16009 ft 373 kts 75°
2026-05-06 00:25 53.51789 -5.63951 16729 ft 377 kts 75°
2026-05-06 00:26 53.52390 -5.59638 17441 ft 382 kts 76°
2026-05-06 00:26 53.52996 -5.55280 18149 ft 386 kts 76°
2026-05-06 00:26 53.53534 -5.50898 18748 ft 392 kts 81°
2026-05-06 00:26 53.53665 -5.46346 18995 ft 391 kts 91°
2026-05-06 00:27 53.53548 -5.41804 19059 ft 388 kts 92°
2026-05-06 00:27 53.53429 -5.37272 19068 ft 388 kts 92°
2026-05-06 00:27 53.53311 -5.32763 19064 ft 388 kts 92°
2026-05-06 00:27 53.53192 -5.28232 19067 ft 388 kts 92°
2026-05-06 00:28 53.53072 -5.23713 19064 ft 388 kts 92°
2026-05-06 00:28 53.52952 -5.19189 19065 ft 388 kts 92°
2026-05-06 00:28 53.52834 -5.14660 19061 ft 388 kts 92°
2026-05-06 00:28 53.52709 -5.10144 19063 ft 388 kts 92°
2026-05-06 00:29 53.52572 -5.05622 19065 ft 388 kts 92°
2026-05-06 00:29 53.52427 -5.01110 19063 ft 388 kts 92°
2026-05-06 00:29 53.52277 -4.96580 19063 ft 388 kts 92°
2026-05-06 00:29 53.52126 -4.92077 19064 ft 388 kts 92°
2026-05-06 00:30 53.51977 -4.87607 19064 ft 388 kts 92°
2026-05-06 00:30 53.51830 -4.83154 19061 ft 388 kts 92°
2026-05-06 00:30 53.51684 -4.78691 19062 ft 388 kts 92°
2026-05-06 00:30 53.51535 -4.74165 19061 ft 388 kts 92°
2026-05-06 00:31 53.51382 -4.69639 19061 ft 388 kts 93°
2026-05-06 00:31 53.51226 -4.65121 19061 ft 388 kts 93°
2026-05-06 00:31 53.51064 -4.60595 19059 ft 388 kts 93°
2026-05-06 00:31 53.50903 -4.56069 19059 ft 388 kts 93°
2026-05-06 00:32 53.50745 -4.51555 19059 ft 388 kts 93°
2026-05-06 00:32 53.50587 -4.47037 19060 ft 388 kts 93°
2026-05-06 00:32 53.50427 -4.42544 19063 ft 388 kts 93°
2026-05-06 00:32 53.50265 -4.38071 19058 ft 388 kts 93°
2026-05-06 00:33 53.50098 -4.33545 19060 ft 388 kts 93°
2026-05-06 00:33 53.49928 -4.29029 19061 ft 388 kts 93°
2026-05-06 00:33 53.49756 -4.24498 19062 ft 388 kts 93°
2026-05-06 00:33 53.49583 -4.19977 19064 ft 388 kts 93°
2026-05-06 00:34 53.49408 -4.15447 19065 ft 388 kts 93°
2026-05-06 00:34 53.49231 -4.10949 19065 ft 387 kts 93°
2026-05-06 00:34 53.49057 -4.06555 18981 ft 373 kts 94°
2026-05-06 00:34 53.48886 -4.02257 18682 ft 366 kts 93°
2026-05-06 00:35 53.48700 -3.98060 18436 ft 365 kts 97°
2026-05-06 00:35 53.48185 -3.93915 18176 ft 364 kts 107°
2026-05-06 00:35 53.47381 -3.89918 17907 ft 362 kts 109°
2026-05-06 00:35 53.46561 -3.85934 17639 ft 361 kts 109°
2026-05-06 00:36 53.45740 -3.81971 17366 ft 359 kts 109°
2026-05-06 00:36 53.44924 -3.78040 17092 ft 358 kts 109°
2026-05-06 00:36 53.44107 -3.74118 16907 ft 355 kts 109°
2026-05-06 00:36 53.43289 -3.70212 17048 ft 357 kts 109°
2026-05-06 00:37 53.42476 -3.66320 17069 ft 357 kts 109°
2026-05-06 00:37 53.41678 -3.62397 17072 ft 358 kts 106°
2026-05-06 00:37 53.41210 -3.58326 16880 ft 359 kts 95°
2026-05-06 00:37 53.41014 -3.54138 16255 ft 362 kts 94°
2026-05-06 00:38 53.40836 -3.49939 15759 ft 360 kts 93°
2026-05-06 00:38 53.40676 -3.46104 15315 ft 359 kts 93°
2026-05-06 00:38 53.40500 -3.41939 14826 ft 358 kts 93°
2026-05-06 00:38 53.40322 -3.37858 14348 ft 357 kts 93°
2026-05-06 00:39 53.40137 -3.33716 13861 ft 356 kts 93°
2026-05-06 00:39 53.39951 -3.29623 13343 ft 355 kts 93°
2026-05-06 00:39 53.39762 -3.25537 12869 ft 352 kts 93°
2026-05-06 00:39 53.39572 -3.21470 12383 ft 349 kts 93°
2026-05-06 00:40 53.39396 -3.17491 12199 ft 337 kts 90°
2026-05-06 00:40 53.39601 -3.13707 12071 ft 323 kts 75°
2026-05-06 00:40 53.40321 -3.10265 11936 ft 309 kts 61°
2026-05-06 00:40 53.41362 -3.07166 11615 ft 305 kts 57°
2026-05-06 00:41 53.42422 -3.04114 11260 ft 303 kts 57°
2026-05-06 00:41 53.43379 -3.01375 10935 ft 301 kts 57°
2026-05-06 00:41 53.44431 -2.98360 10584 ft 299 kts 57°
2026-05-06 00:41 53.45476 -2.95360 10239 ft 297 kts 57°
2026-05-06 00:42 53.46509 -2.92378 9880 ft 295 kts 57°
2026-05-06 00:42 53.47529 -2.89421 9471 ft 293 kts 57°
2026-05-06 00:42 53.48547 -2.86473 9099 ft 290 kts 57°
2026-05-06 00:42 53.49539 -2.83596 8708 ft 288 kts 58°
2026-05-06 00:43 53.50529 -2.80715 8319 ft 285 kts 58°
2026-05-06 00:43 53.51509 -2.77852 8032 ft 279 kts 58°
2026-05-06 00:43 53.52410 -2.75151 7904 ft 268 kts 63°
2026-05-06 00:43 53.52904 -2.72122 7658 ft 264 kts 84°
2026-05-06 00:44 53.52707 -2.69076 7315 ft 264 kts 106°
2026-05-06 00:44 53.51877 -2.66344 6965 ft 264 kts 123°
2026-05-06 00:44 53.50853 -2.63823 6782 ft 259 kts 123°
2026-05-06 00:44 53.49851 -2.61334 6653 ft 258 kts 123°
2026-05-06 00:45 53.48847 -2.58831 6545 ft 258 kts 122°
2026-05-06 00:45 53.47898 -2.56465 6435 ft 257 kts 122°
2026-05-06 00:45 53.46870 -2.53908 6318 ft 256 kts 122°
2026-05-06 00:45 53.45879 -2.51443 6203 ft 256 kts 122°
2026-05-06 00:46 53.44884 -2.48969 6098 ft 256 kts 122°
2026-05-06 00:46 53.43923 -2.46579 5982 ft 255 kts 122°
2026-05-06 00:46 53.42904 -2.44048 5879 ft 255 kts 122°
2026-05-06 00:46 53.41950 -2.41687 5770 ft 255 kts 122°
2026-05-06 00:47 53.40925 -2.39150 5654 ft 254 kts 122°
2026-05-06 00:47 53.39951 -2.36738 5549 ft 254 kts 122°
2026-05-06 00:47 53.38987 -2.34347 5423 ft 253 kts 122°
2026-05-06 00:47 53.38084 -2.32156 5270 ft 249 kts 127°
2026-05-06 00:48 53.36714 -2.30378 5159 ft 239 kts 158°
2026-05-06 00:48 53.35125 -2.30009 5057 ft 227 kts 189°
2026-05-06 00:48 53.33682 -2.30907 4952 ft 221 kts 218°
2026-05-06 00:48 53.32633 -2.32717 4854 ft 218 kts 234°
2026-05-06 00:49 53.31696 -2.34712 4754 ft 218 kts 234°
2026-05-06 00:49 53.30759 -2.36700 4658 ft 218 kts 234°
2026-05-06 00:49 53.29821 -2.38678 4555 ft 217 kts 233°
2026-05-06 00:49 53.28884 -2.40651 4464 ft 216 kts 233°
2026-05-06 00:50 53.27963 -2.42591 4368 ft 216 kts 233°
2026-05-06 00:50 53.27022 -2.44572 4274 ft 216 kts 233°
2026-05-06 00:50 53.26091 -2.46531 4170 ft 216 kts 233°
2026-05-06 00:50 53.25136 -2.48471 4073 ft 216 kts 226°
2026-05-06 00:51 53.23924 -2.49946 3979 ft 217 kts 206°
2026-05-06 00:51 53.22499 -2.50690 3886 ft 216 kts 186°
2026-05-06 00:51 53.21005 -2.50949 3794 ft 215 kts 185°
2026-05-06 00:51 53.19551 -2.51212 3726 ft 202 kts 185°
2026-05-06 00:52 53.18251 -2.51454 3657 ft 173 kts 185°
2026-05-06 00:52 53.17143 -2.51663 3553 ft 150 kts 185°
2026-05-06 00:52 53.16170 -2.52138 3511 ft 146 kts 205°
2026-05-06 00:52 53.15346 -2.53106 3478 ft 145 kts 225°
2026-05-06 00:53 53.14759 -2.54448 3436 ft 144 kts 245°
2026-05-06 00:53 53.14468 -2.56022 3411 ft 142 kts 264°
2026-05-06 00:53 53.14494 -2.57649 3374 ft 140 kts 283°
2026-05-06 00:53 53.14820 -2.59165 3348 ft 138 kts 302°
2026-05-06 00:54 53.15402 -2.60415 3314 ft 136 kts 320°
2026-05-06 00:54 53.16176 -2.61297 3286 ft 134 kts 338°
2026-05-06 00:54 53.17061 -2.61733 3257 ft 132 kts 355°
2026-05-06 00:54 53.17970 -2.61718 3228 ft 131 kts 11°
2026-05-06 00:55 53.18829 -2.61266 3199 ft 130 kts 27°
2026-05-06 00:55 53.19569 -2.60416 3166 ft 129 kts 44°
2026-05-06 00:55 53.20131 -2.59255 3137 ft 129 kts 58°
2026-05-06 00:55 53.20632 -2.58021 3094 ft 129 kts 54°
2026-05-06 00:56 53.21164 -2.56823 3079 ft 129 kts 53°
2026-05-06 00:56 53.21708 -2.55656 3053 ft 128 kts 52°
2026-05-06 00:56 53.22253 -2.54511 3023 ft 128 kts 51°
2026-05-06 00:56 53.22790 -2.53397 2991 ft 127 kts 52°
2026-05-06 00:57 53.23359 -2.52223 2968 ft 127 kts 52°
2026-05-06 00:57 53.23909 -2.51092 2989 ft 126 kts 51°
2026-05-06 00:57 53.24467 -2.49949 2999 ft 127 kts 51°
2026-05-06 00:57 53.25024 -2.48805 2998 ft 127 kts 51°
2026-05-06 00:58 53.25580 -2.47664 3006 ft 127 kts 51°
2026-05-06 00:58 53.26137 -2.46521 2949 ft 127 kts 51°
2026-05-06 00:58 53.26674 -2.45419 2831 ft 126 kts 51°
2026-05-06 00:58 53.27232 -2.44274 2681 ft 125 kts 52°
2026-05-06 00:59 53.27780 -2.43149 2528 ft 125 kts 52°
2026-05-06 00:59 53.28320 -2.42039 2355 ft 124 kts 52°
2026-05-06 00:59 53.28853 -2.40942 2193 ft 124 kts 52°
2026-05-06 00:59 53.29393 -2.39832 2014 ft 124 kts 53°
2026-05-06 01:00 53.29930 -2.38728 1855 ft 123 kts 53°
2026-05-06 01:00 53.30466 -2.37625 1684 ft 123 kts 53°
2026-05-06 01:00 53.31001 -2.36523 1516 ft 122 kts 53°
2026-05-06 01:00 53.31533 -2.35427 1343 ft 123 kts 52°
2026-05-06 01:01 53.32069 -2.34322 1153 ft 123 kts 52°
2026-05-06 01:01 53.32606 -2.33215 962 ft 123 kts 52°
2026-05-06 01:01 53.33146 -2.32101 779 ft 125 kts 52°
2026-05-06 01:01 53.33684 -2.30989 622 ft 125 kts 52°
2026-05-06 01:02 53.34229 -2.29866 436 ft 124 kts 52°
2026-05-06 01:02 53.34766 -2.28755 279 ft 124 kts 52°
2026-05-06 01:02 53.35254 -2.27736 237 ft 83 kts 50°
2026-05-06 01:02 53.35442 -2.27352 242 ft 19 kts 50°
2026-05-06 01:03 53.35531 -2.27177 242 ft 20 kts 49°
2026-05-06 01:03 53.35621 -2.27081 245 ft 2 kts 346°
2026-05-06 01:03 53.35626 -2.27088 245 ft 1 kts 328°
2026-05-06 01:03 53.35641 -2.27104 245 ft 3 kts 327°
2026-05-06 01:04 53.35662 -2.27126 244 ft 4 kts 326°
2026-05-06 01:04 53.35682 -2.27157 244 ft 4 kts 316°
2026-05-06 01:04 53.35707 -2.27197 244 ft 6 kts 317°
2026-05-06 01:04 53.35738 -2.27244 244 ft 6 kts 321°
2026-05-06 01:05 53.35771 -2.27282 244 ft 6 kts 327°
2026-05-06 01:05 53.35814 -2.27325 244 ft 7 kts 329°
2026-05-06 01:05 53.35834 -2.27379 243 ft 6 kts 291°
2026-05-06 01:06 53.35842 -2.27416 243 ft 2 kts 289°
2026-05-06 01:06 53.35843 -2.27420 243 ft 0 kts 289°